Weather History for Sacramento, CA

Change the Weather History Date:

Wednesday, February 6, 2013

  Actual Average Record
Temperature  
Mean Temperature 48 °F -  
Max Temperature 59 °F 58 °F 75 °F (2011)
Min Temperature 36 °F 40 °F 24 °F (1989)
Degree Days  
Heating Degree Days 17    
Cooling Degree Days 0    
Moisture  
Dew Point 39 °F    
Average Humidity 74    
Maximum Humidity 100    
Minimum Humidity 47    
Precipitation  
Precipitation 0.00 in 0.13 in 1.09 in (1998)
Month to date precipitation 0.00 0.77  
Year to date precipitation 0.96 4.41  
Since 1 July precipitation 12.25 11.03  
Sea Level Pressure  
Sea Level Pressure 30.15 in    
Wind  
Wind Speed 3 mph (West)    
Max Wind Speed 8 mph    
Max Gust Speed 14 mph    
Visibility 5 miles    
Events Fog    
T = Trace of Precipitation, MM = Missing Value Source: NWS Daily Summary

Daily Weather History Graph

Daily Weather History Graph

Search for Another Location

Airport:

Trip Planner

Search our weather history database for the weather conditions in past years. The results will help you decide how hot, cold, wet, or windy it might be!

Date:

Astronomy

Feb. 06, 2013 Rise Set
Actual Time 7:06 AM PST 5:34 PM PST
Civil Twilight 6:38 AM PST 6:01 PM PST
Nautical Twilight 6:07 AM PST 6:33 PM PST
Astronomical Twilight 5:36 AM PST 7:04 PM PST
Moon 3:53 AM PST (2/6) 1:59 PM PST (2/6)
Length of Visible Light 11h 23m
Length of Day
10h 28m
Waning Crescent, 16% of the Moon is Illuminated
Feb 6
Waning Crescent
Feb 9
New
Feb 17
First Quarter
Feb 25
Full
Mar 4
Last Quarter

Hourly Weather History & Observations

Time (PST) Temp. Windchill Dew Point Humidity Pressure Visibility Wind Dir Wind Speed Gust Speed Precip Events Conditions
12:53 AM 39.9 °F - 37.0 °F 89% 30.15 in 4.0 mi Calm Calm - N/A   Clear
1:02 AM 39.2 °F - 37.4 °F 93% 30.15 in 2.5 mi Calm Calm - N/A   Clear
1:16 AM 37.4 °F - 37.4 °F 100% 30.15 in 1.0 mi Calm Calm - N/A   Clear
1:25 AM 41.0 °F 39.0 °F 37.4 °F 87% 30.15 in 3.0 mi North 3.5 mph - N/A   Clear
1:53 AM 39.9 °F 35.8 °F 37.9 °F 93% 30.14 in 8.0 mi North 5.8 mph - N/A   Clear
2:53 AM 39.9 °F - 37.0 °F 89% 30.13 in 7.0 mi Calm Calm - N/A   Clear
3:53 AM 39.0 °F 35.7 °F 37.0 °F 93% 30.14 in 4.0 mi NW 4.6 mph - N/A   Clear
4:43 AM 39.2 °F 37.0 °F 37.4 °F 93% 30.14 in 2.5 mi NW 3.5 mph - N/A   Clear
4:53 AM 39.0 °F 36.8 °F 37.9 °F 96% 30.14 in 2.5 mi NW 3.5 mph - N/A   Clear
5:00 AM 39.2 °F - 37.4 °F 93% 30.14 in 0.8 mi Calm Calm - N/A   Mist
5:10 AM 37.4 °F 33.8 °F 35.6 °F 93% 30.15 in 0.2 mi WNW 4.6 mph - N/A Fog Fog
5:36 AM 39.2 °F 37.0 °F 39.2 °F 100% 30.15 in 0.2 mi WNW 3.5 mph - N/A Fog Fog
5:53 AM 39.9 °F 36.7 °F 39.0 °F 97% 30.15 in 0.2 mi WNW 4.6 mph - N/A Fog Fog
6:53 AM 41.0 °F - 39.0 °F 93% 30.17 in 0.2 mi Calm Calm - N/A Fog Fog
7:53 AM 41.0 °F - 39.9 °F 96% 30.18 in 0.2 mi Calm Calm - N/A Fog Fog
8:53 AM 42.1 °F 40.2 °F 41.0 °F 96% 30.18 in 0.2 mi North 3.5 mph - N/A Fog Fog
9:04 AM 42.8 °F - 41.0 °F 93% 30.18 in 0.2 mi Calm Calm - N/A Fog Fog
9:33 AM 42.8 °F 40.1 °F 41.0 °F 93% 30.19 in 1.0 mi NW 4.6 mph - N/A   Overcast
9:45 AM 44.6 °F 43.1 °F 42.8 °F 93% 30.20 in 2.5 mi NW 3.5 mph - N/A   Overcast
9:53 AM 43.0 °F 41.3 °F 42.1 °F 97% 30.19 in 2.5 mi WNW 3.5 mph - N/A   Mostly Cloudy
10:05 AM 44.6 °F - 42.8 °F 93% 30.20 in 3.0 mi Calm Calm - N/A   Mostly Cloudy
10:23 AM 46.4 °F - 42.8 °F 87% 30.20 in 5.0 mi Calm Calm - N/A   Scattered Clouds
10:53 AM 50.0 °F - 41.0 °F 71% 30.19 in 10.0 mi WNW 3.5 mph - N/A   Clear
11:53 AM 52.0 °F - 42.1 °F 69% 30.18 in 9.0 mi West 4.6 mph - N/A   Clear
12:53 PM 55.0 °F - 39.0 °F 55% 30.15 in 10.0 mi NW 6.9 mph - N/A   Clear
1:53 PM 57.9 °F - 37.9 °F 47% 30.13 in 10.0 mi WSW 3.5 mph - N/A   Clear
2:53 PM 57.9 °F - 37.9 °F 47% 30.12 in 10.0 mi Calm Calm - N/A   Clear
3:53 PM 57.9 °F - 42.1 °F 56% 30.12 in 10.0 mi SW 5.8 mph - N/A   Clear
4:53 PM 57.0 °F - 41.0 °F 55% 30.12 in 10.0 mi SSW 5.8 mph - N/A   Clear
5:53 PM 55.0 °F - 37.9 °F 53% 30.12 in 10.0 mi South 4.6 mph - N/A   Clear
6:53 PM 52.0 °F - 39.9 °F 63% 30.12 in 10.0 mi SSW 5.8 mph - N/A   Clear
7:53 PM 50.0 °F - 39.9 °F 68% 30.13 in 10.0 mi South 6.9 mph - N/A   Clear
8:53 PM 46.9 °F - 39.0 °F 74% 30.14 in 10.0 mi SSW 5.8 mph - N/A   Clear
9:53 PM 46.9 °F - 37.9 °F 71% 30.15 in 10.0 mi SSE 8.1 mph - N/A   Clear
10:53 PM 45.0 °F 41.8 °F 37.9 °F 76% 30.16 in 10.0 mi SSE 5.8 mph - N/A   Clear
11:53 PM 44.1 °F 40.8 °F 37.9 °F 79% 30.16 in 10.0 mi South 5.8 mph - N/A   Clear